Williamsport, PA

12:48 PM EST on December 09, 2019 (GMT -0500)
Williamsport Rgnl

Weather History for KIPT - July, 2019

Change the Weather History Date:

Wednesday, July 17, 2019

  Actual Average Record
Temperature  
Mean Temperature 80 °F 73 °F  
Max Temperature 88 °F 84 °F 98 °F (1953)
Min Temperature 71 °F 62 °F 49 °F (1946)
Degree Days  
Heating Degree Days 0 0  
Month to date heating degree days 0 0  
Since 1 June heating degree days 29 37  
Since 1 July heating degree days 0 0  
Cooling Degree Days 15 8  
Month to date cooling degree days 185 133  
Year to date cooling degree days 368 322  
Since 1 June cooling degree days 316 279  
Growing Degree Days 30 (Base 50)    
Moisture  
Dew Point 71 °F    
Average Humidity 79    
Maximum Humidity 93    
Minimum Humidity 65    
Precipitation  
Precipitation 1.44 in 0.15 in 2.26 in (2017)
Month to date precipitation 4.59 2.28  
Year to date precipitation 30.87 21.11  
Sea Level Pressure  
Sea Level Pressure 29.92 in    
Wind  
Wind Speed 3 mph (ESE)    
Max Wind Speed 16 mph    
Max Gust Speed 19 mph    
Visibility 8 miles    
Events Fog , Rain , Thunderstorm    
T = Trace of Precipitation, MM = Missing Value Source: NWS Daily Summary

Daily Weather History Graph

Daily Weather History Graph

Search for Another Location

Airport or City:

Astronomy

Jul. 17, 2019 Rise Set
Actual Time 5:49 AM EDT 8:38 PM EDT
Civil Twilight 5:16 AM EDT 9:10 PM EDT
Nautical Twilight 4:35 AM EDT 9:51 PM EDT
Astronomical Twilight 3:48 AM EDT 10:38 PM EDT
Moon 9:25 PM EDT (7/17) 6:19 AM EDT (7/17)
Length of Visible Light 15h 53m
Length of Day
14h 48m
Waxing Gibbous, 99% of the Moon is Illuminated
Jul 17
Waxing Gibbous
Jul 24
Last Quarter
Jul 31
New
Aug 7
First Quarter
Aug 15
Full

Hourly Weather History & Observations

Time (EDT) Temp. Heat Index Dew Point Humidity Pressure Visibility Wind Dir Wind Speed Gust Speed Precip Events Conditions
12:54 AM 73.0 °F - 70.0 °F 90% 30.00 in 10.0 mi Calm Calm - N/A   Overcast
1:54 AM 73.0 °F - 70.0 °F 90% 29.99 in 10.0 mi Calm Calm - 0.00 in   Partly Cloudy
2:54 AM 72.0 °F - 69.1 °F 91% 29.96 in 10.0 mi ENE 3.5 mph - N/A   Clear
3:37 AM 72.0 °F - 69.1 °F 91% 29.96 in 10.0 mi NE 3.5 mph - N/A   Partly Cloudy
3:54 AM 72.0 °F - 69.1 °F 91% 29.96 in 10.0 mi Calm Calm - N/A   Scattered Clouds
4:04 AM 72.0 °F - 69.1 °F 91% 29.97 in 10.0 mi Calm Calm - N/A   Mostly Cloudy
4:54 AM 72.0 °F - 69.1 °F 91% 29.95 in 9.0 mi Calm Calm - N/A   Overcast
5:29 AM 72.0 °F - 69.1 °F 91% 29.97 in 10.0 mi Calm Calm - N/A   Overcast
5:54 AM 72.0 °F - 69.1 °F 91% 29.97 in 10.0 mi Calm Calm - N/A   Overcast
6:05 AM 72.0 °F - 69.1 °F 91% 29.98 in 10.0 mi Calm Calm - N/A   Overcast
6:54 AM 72.0 °F - 69.1 °F 91% 29.96 in 9.0 mi Calm Calm - N/A   Overcast
7:25 AM 73.0 °F - 70.0 °F 90% 29.97 in 8.0 mi Calm Calm - N/A   Overcast
7:54 AM 73.0 °F - 70.0 °F 90% 29.97 in 7.0 mi Calm Calm - N/A   Overcast
8:54 AM 75.9 °F - 70.0 °F 82% 29.97 in 10.0 mi Calm Calm - N/A   Scattered Clouds
9:54 AM 78.1 °F - 72.0 °F 81% 29.96 in 10.0 mi SE 6.9 mph - N/A   Scattered Clouds
10:54 AM 82.0 °F 86.7 °F 72.0 °F 71% 29.95 in 10.0 mi SSE 3.5 mph - N/A   Clear
11:54 AM 84.9 °F 90.1 °F 71.1 °F 63% 29.93 in 10.0 mi Calm Calm - N/A   Clear
12:54 PM 84.0 °F 89.6 °F 72.0 °F 67% 29.91 in 10.0 mi South 5.8 mph - N/A   Mostly Cloudy
1:54 PM 84.9 °F 92.1 °F 73.9 °F 69% 29.89 in 10.0 mi SE 8.1 mph - N/A Thunderstorm Partly Cloudy
2:07 PM 82.0 °F 85.9 °F 70.0 °F 67% 29.90 in 10.0 mi SSE 12.7 mph - N/A Thunderstorm Thunderstorm
2:12 PM 82.0 °F 85.9 °F 70.0 °F 67% 29.89 in 2.0 mi SSE 13.8 mph - N/A Thunderstorm Unknown
2:22 PM 78.1 °F - 70.0 °F 76% 29.91 in 2.0 mi SSE 13.8 mph - 0.02 in Rain , Thunderstorm Rain
2:27 PM 75.0 °F - 71.1 °F 87% 29.93 in 1.5 mi SSE 13.8 mph - 0.04 in Rain , Thunderstorm Heavy Thunderstorms and Rain
2:34 PM 73.0 °F - 71.1 °F 93% 29.90 in 0.2 mi SSE 13.8 mph - 0.41 in Fog , Rain , Thunderstorm Heavy Thunderstorms and Rain
2:40 PM 75.0 °F - 72.0 °F 90% 29.91 in 7.0 mi SSE 13.8 mph - 0.49 in Rain , Thunderstorm Light Thunderstorms and Rain
2:51 PM 77.0 °F - 71.6 °F 83% 29.90 in 10.0 mi NNW 6.9 mph - 0.49 in Thunderstorm Thunderstorm
2:54 PM 77.0 °F - 71.1 °F 82% 29.89 in 10.0 mi North 6.9 mph - 0.49 in Thunderstorm Thunderstorm
3:09 PM 77.0 °F - 72.0 °F 84% 29.90 in 10.0 mi Calm Calm - N/A Thunderstorm Partly Cloudy
3:40 PM 77.0 °F - 71.1 °F 82% 29.89 in 10.0 mi NW 8.1 mph - N/A   Mostly Cloudy
3:54 PM 75.0 °F - 71.1 °F 87% 29.90 in 1.0 mi West 13.8 mph - 0.00 in Rain , Thunderstorm Rain
3:57 PM 73.9 °F - 71.1 °F 91% 29.91 in 0.5 mi West 15.0 mph - 0.06 in Rain , Thunderstorm Rain
4:04 PM 73.0 °F - 71.1 °F 93% 29.91 in 0.5 mi WSW 8.1 mph - 0.37 in Rain , Thunderstorm Thunderstorms and Rain
4:09 PM 73.0 °F - 71.1 °F 93% 29.93 in 2.0 mi South 11.5 mph - 0.39 in Rain , Thunderstorm Thunderstorms and Rain
4:18 PM 73.9 °F - 71.1 °F 91% 29.91 in 2.0 mi ESE 5.8 mph - 0.58 in Rain , Thunderstorm Thunderstorms and Rain
4:22 PM 73.9 °F - 71.1 °F 91% 29.90 in 4.0 mi East 6.9 mph - 0.61 in Rain , Thunderstorm Light Thunderstorms and Rain
4:29 PM 73.9 °F - 71.1 °F 91% 29.91 in 8.0 mi East 6.9 mph - 0.61 in Rain , Thunderstorm Light Rain
4:45 PM 73.0 °F - 71.1 °F 93% 29.90 in 9.0 mi East 4.6 mph - 0.62 in Rain Light Rain
4:54 PM 73.0 °F - 71.1 °F 93% 29.90 in 4.0 mi Calm Calm - 0.64 in Rain Rain
5:38 PM 73.0 °F - 71.1 °F 93% 29.88 in 10.0 mi Variable 4.6 mph - 0.07 in Rain Light Rain
5:54 PM 73.9 °F - 72.0 °F 93% 29.87 in 10.0 mi ESE 3.5 mph - 0.07 in   Overcast
6:54 PM 75.0 °F - 71.1 °F 87% 29.86 in 10.0 mi Calm Calm - N/A   Overcast
7:54 PM 73.9 °F - 72.0 °F 93% 29.86 in 10.0 mi Calm Calm - 0.00 in Rain Light Rain
8:39 PM 73.9 °F - 72.0 °F 93% 29.88 in 4.0 mi East 3.5 mph - 0.03 in Rain Rain
8:54 PM 73.9 °F - 72.0 °F 93% 29.87 in 3.0 mi ENE 3.5 mph - 0.10 in Rain Heavy Rain
8:57 PM 73.9 °F - 72.0 °F 93% 29.88 in 2.5 mi ENE 4.6 mph - 0.02 in Rain Heavy Rain
9:05 PM 73.9 °F - 72.0 °F 93% 29.88 in 3.0 mi ENE 3.5 mph - 0.07 in Rain Rain
9:54 PM 73.9 °F - 72.0 °F 93% 29.87 in 10.0 mi NE 4.6 mph - 0.13 in   Overcast
10:04 PM 73.9 °F - 71.1 °F 91% 29.88 in 10.0 mi Calm Calm - N/A   Overcast
10:54 PM 73.9 °F - 71.1 °F 91% 29.87 in 10.0 mi ENE 8.1 mph - N/A   Overcast
11:16 PM 73.9 °F - 70.0 °F 87% 29.88 in 10.0 mi SE 5.8 mph - N/A   Overcast
11:54 PM 73.9 °F - 71.1 °F 91% 29.87 in 10.0 mi Calm Calm - N/A   Overcast